Location: Brunembert
(50.7122°N, 1.8935°E)
Time: 04:25:25
(UTC+00:00)

Lacrosse 5 rocket - Pass Details

Date: 22 April 2021
Orbit: 461 x 634 km, 57.0° (Epoch: 06 May)

Event Time Altitude Azimuth Distance (km) Brightness Sun altitude
Rises 22:19:13 0° 301° (WNW) 2,772 5.8 -23.7°
Reaches altitude 10° 22:21:25 10° 301° (WNW) 1,900 4.8 -23.8°
Enters shadow 22:25:37 84° 300° (WNW) 610 1.4 -24.1°
